Flag for United Kingdom Weather past 2 weeks in Telford, England, United Kingdom

Now
59 °F

Overcast.


Feels Like: 58 °F
Forecast: 49 / 60 °F
Wind: 8 mph from Northwest

Location: Shawbury

Current Time: Aug 31, 2015 at 4:24:51 PM

Latest Report: Aug 31, 2015 at 3:50 PM


Visibility: N/A

Pressure: 30.01 "Hg

Humidity: 88%

Dew point: 55 °F

Location of TelfordLocation

Historic Weather in Telford — Graph

°F

Telford temperature yesterday

Maximum temperature yesterday: 64 °F (at 1:50 PM)
Minimum temperature yesterday: 50 °F (at 4:50 AM)
Average temperature yesterday: 57 °F

Past Weeks' High & Low Weather Summary

 TemperatureHumidityPressure
High73 °F (Aug 22, 4:50 PM)100% (Aug 20, 12:50 AM)30.09 "Hg (Aug 20, 12:50 AM)
Low46 °F (Aug 18, 3:50 AM)43% (Aug 18, 12:50 PM)29.45 "Hg (Aug 26, 5:50 AM)
Average60 °F81%29.86 "Hg
* Reported Aug 16 2:50 PM — Aug 31 2:50 PM, Telford, Weather by CustomWeather, © 2015

Note: Actual official high and low records may vary slightly from our data, if they occured in-between our weather recording intervals... More about our weather records

Advertising

Telford weather history for previous 24 hours

 ConditionsComfort  
Time TempWeatherWind HumidityBarometerVisibility
2:50 PM
Mon, Aug 31
59 °FPartly sunny.9 mph88%30.01 "HgN/A
1:50 PM59 °FRain. Broken clouds.8 mph88%30.01 "Hg4 mi
12:50 PM59 °FRain showers. Overcast.10 mph88%30.01 "HgN/A
11:50 AM57 °FOvercast.10 mph88%29.98 "HgN/A
10:50 AM57 °FPartly sunny.9 mph88%29.98 "HgN/A
9:50 AM55 °FOvercast.7 mph88%29.98 "HgN/A
8:50 AM54 °FLight rain. Partly sunny.6 mph94%29.98 "HgN/A
7:50 AM54 °FRain. Partly sunny.7 mph94%29.98 "Hg4 mi
6:50 AM54 °FRain. Overcast.8 mph94%30.01 "Hg3 mi
5:50 AM54 °FRain. Partly cloudy.9 mph94%30.01 "Hg4 mi
4:50 AM54 °FLight rain. Passing clouds.9 mph94%30.01 "HgN/A
3:50 AM55 °FPassing clouds.9 mph94%30.01 "HgN/A
2:50 AM55 °FRain. Passing clouds.7 mph94%30.04 "Hg5 mi
1:50 AM55 °FRain. Passing clouds.6 mph94%30.04 "Hg4 mi
12:50 AM55 °FLight rain. Overcast.7 mph94%30.04 "HgN/A
11:50 PM
Sun, Aug 30
55 °FLight rain. Overcast.6 mph94%30.07 "HgN/A
10:50 PM55 °FLight rain. Overcast.10 mph94%30.07 "HgN/A
9:50 PM55 °FRain. Overcast.6 mph94%30.07 "HgN/A
8:50 PM57 °FLight rain. Overcast.2 mph94%30.09 "HgN/A
7:50 PM59 °FLight rain. Overcast.3 mph94%30.07 "HgN/A
6:50 PM61 °FRain showers. Partly sunny.3 mph77%30.07 "HgN/A
5:50 PM63 °FOvercast.5 mph73%30.07 "HgN/A
4:50 PM64 °FSprinkles. Overcast.2 mph64%30.07 "HgN/A
Weather by CustomWeather, © 2015

See weather overviewHow to use our weather pages